Hourly Data Report for October 01, 2017

All times are specified in Local Standard Time (LST). Add 1 hour to adjust for Daylight Saving Time where and when it is observed.

ST. PETERS
PRINCE EDWARD ISLAND

46°27'01.000" N
62°34'33.000" W
29.70 m
8300562
71310
ZSP

Download Data

Hourly Data (October 2017)
Hourly Data Report for October 1, 2017
Temp Definition
°C
Dew Point Temp Definition
°C
Rel Hum Definition
%
Wind Dir Definition
10's deg

Wind Spd Definition
km/h
Visibility Definition
km
Stn Press Definition
kPa
Hmdx Definition


Wind Chill Definition


Weather Definition


TIME
00:00 3.2 1.6 89 22 10   102.03     LegendNANA
01:00 3.6 1.8 88 21 11   102.02     LegendNANA
02:00 3.5 1.7 88 22 9   102.01     LegendNANA
03:00 4.0 1.8 86 21 11   101.97     LegendNANA
04:00 5.1 2.9 86 22 13   101.92     LegendNANA
05:00 5.8 3.5 85 22 15   101.86     LegendNANA
06:00 6.1 3.6 84 22 15   101.85     LegendNANA
07:00 6.4 4.1 85 23 14   101.84     LegendNANA
08:00 8.7 4.9 77 22 19   101.80     LegendNANA
09:00 11.2 4.4 63 23 24   101.79     LegendNANA
10:00 12.5 4.2 57 24 24   101.73     LegendNANA
11:00 14.2 4.8 53 23 26   101.64     LegendNANA
12:00 14.9 2.8 44 24 28   101.55     LegendNANA
13:00 15.8 3.5 44 24 27   101.48     LegendNANA
14:00 15.7 3.0 42 22 31   101.39     LegendNANA
15:00 16.2 2.3 39 24 29   101.36     LegendNANA
16:00 16.0 2.7 41 23 23   101.33     LegendNANA
17:00 15.2 4.5 49 24 15   101.34     LegendNANA
18:00 12.8 5.1 59 23 14   101.40     LegendNANA
19:00 11.1 6.4 73 22 15   101.46     LegendNANA
20:00 11.3 7.5 78 23 15   101.49     LegendNANA
21:00 10.6 7.4 80 22 16   101.50     LegendNANA
22:00 10.8 7.6 81 24 15   101.50     LegendNANA
23:00 8.7 6.8 88 21 11   101.49     LegendNANA

Notes on Data Quality.

Legend

  • E = Estimated
  • M = Missing
  • NA = Not Available
  • ‡ = Partner data that is not subject to review by the National Climate Archives
Date modified: